Flag for Germany Weather past 2 weeks in Wolfsburg, Lower Saxony, Germany

Now
48 °F

Clear.


Feels Like: 47 °F
Forecast: 44 / 57 °F
Wind: 3 mph from Southeast

Location: Braunschweig

Current Time: Oct 23, 2014 at 11:36:06 PM

Latest Report: Oct 23, 2014 at 7:50 PM


Visibility: 10 mi

Pressure: 30.21 "Hg

Humidity: 94%

Dew point: 46 °F

Location of WolfsburgLocation

Historic Weather in Wolfsburg — Graph

°F

Wolfsburg temperature yesterday

Maximum temperature yesterday: 52 °F (at 3:20 PM)
Minimum temperature yesterday: 46 °F (at 9:20 AM)
Average temperature yesterday: 49 °F

Past Weeks' High & Low Weather Summary

 TemperatureHumidityPressure
High72 °F (Oct 19, 3:50 PM)100% (Oct 9, 6:50 AM)30.21 "Hg (Oct 9, 6:50 AM)
Low45 °F (Oct 23, 8:20 AM)52% (Oct 14, 2:20 PM)29.45 "Hg (Oct 21, 6:20 PM)
Average57 °F88%29.82 "Hg
* Reported Oct 8 7:20 PM — Oct 23 7:50 PM, Wolfsburg, Weather by CustomWeather, © 2014

Note: Actual official high and low records may vary slightly from our data, if they occured in-between our weather recording intervals... More about our weather records

Advertising

Wolfsburg weather history for previous 24 hours

 ConditionsComfort  
Time TempWeatherWind HumidityBarometerVisibility
7:50 PM
Oct 23
48 °FClear.3 mph94%30.21 "Hg10 mi
7:20 PM46 °FClear.2 mph93%30.21 "Hg10 mi
6:50 PM48 °FPassing clouds.3 mph87%30.18 "HgN/A
6:20 PM52 °FSunny.3 mph82%30.18 "Hg10 mi
5:50 PM54 °FSunny.6 mph77%30.18 "Hg10 mi
5:20 PM55 °FSunny.5 mph67%30.18 "Hg10 mi
4:50 PM54 °FPassing clouds.5 mph77%30.18 "HgN/A
4:20 PM54 °FScattered clouds.5 mph77%30.18 "HgN/A
3:50 PM55 °FBroken clouds.6 mph72%30.18 "HgN/A
3:20 PM55 °FPassing clouds.5 mph67%30.18 "HgN/A
2:50 PM55 °FPassing clouds.6 mph67%30.18 "HgN/A
2:20 PM55 °FPartly sunny.7 mph67%30.18 "HgN/A
1:50 PM55 °FPartly sunny.6 mph67%30.18 "HgN/A
1:20 PM54 °FScattered clouds.6 mph72%30.18 "HgN/A
12:50 PM54 °FPassing clouds.8 mph77%30.18 "HgN/A
12:20 PM54 °FPassing clouds.8 mph77%30.18 "HgN/A
11:50 AM54 °FPassing clouds.8 mph77%30.18 "HgN/A
11:20 AM54 °FPassing clouds.7 mph77%30.18 "HgN/A
10:50 AM52 °FPassing clouds.6 mph82%30.18 "HgN/A
10:20 AM50 °FPassing clouds.6 mph88%30.18 "HgN/A
9:50 AM48 °FPassing clouds.3 mph94%30.18 "HgN/A
9:20 AM46 °FBroken clouds.5 mph93%30.15 "HgN/A
8:50 AM46 °FPassing clouds.5 mph93%30.15 "HgN/A
8:20 AM45 °FPartly cloudy.5 mph93%30.15 "HgN/A
7:50 AM46 °FPassing clouds.5 mph93%30.12 "HgN/A
7:20 AM48 °FOvercast.6 mph87%30.12 "HgN/A
6:50 AM48 °FOvercast.6 mph87%30.12 "HgN/A
Weather by CustomWeather, © 2014

See weather overviewHow to use our weather pages